User: anonymous   Login
Location: Newark
(39.9581°N, 97.2014°W)
Time: 16:44:01
(UTC+00:00)
Language:

Tiros 1 - Orbit

View from above orbital plane
View from above orbital plane
View from above satellite
View from above satellite

Ground track
Ground track

The orbit data is extracted from the following two-line orbital elements,

1    29U 60002B   20051.74665708 -.00000149  00000-0  89463-5 0  9990
2    29  48.3793 144.1073 0023511  89.2070 271.1536 14.74341748201297
Epoch (UTC): 20 February 2020 17:55:11
Eccentricity: 0.0023511
inclination: 48.3793°
perigee height: 631 km
apogee height: 664 km
right ascension of ascending node: 144.1073°
argument of perigee: 89.2070°
revolutions per day: 14.74341748
mean anomaly at epoch: 271.1536°
orbit number at epoch: 20129

The dashed part of the orbit path shows where the satellite is in the earth's shadow,  

DLR